Regional Weather Roundup
Issued by NWS

Home | Current Version | Previous Version | Graphics & Text | Print | Product List | Glossary On
Versions: 1 2 3 4 5 6 7 8 9 10 11 12 13 14 15 16 17 18 19 20 21 22 23 24 25 26 27 28 29 30 31 32 33 34 35 36 37 38 39 40 41 42 43 44 45 46 47 48 49 50
760
ASUS43 KBIS 251710
RWRND

NORTH DAKOTA REGIONAL WEATHER ROUNDUP
NATIONAL WEATHER SERVICE BISMARCK ND
1200 PM CDT MON SEP 25 2017

NOTE: "FAIR" INDICATES FEW OR NO CLOUDS BELOW 12,000 FEET WITH NO
SIGNIFICANT WEATHER AND/OR OBSTRUCTIONS TO VISIBILITY.


NDZ001>003-009>011-017-251800-
NORTHWEST NORTH DAKOTA

CITY           SKY/WX    TMP DP  RH WIND       PRES   REMARKS
WILLISTON      CLOUDY    49  43  80 CALM      30.18S
MINOT          CLOUDY    51  45  79 SE3       30.17S
MINOT AFB      CLOUDY    51  45  82 SE5       30.15F
$$

NDZ018>021-031>035-040>046-251800-
SOUTHWEST NORTH DAKOTA

CITY           SKY/WX    TMP DP  RH WIND       PRES   REMARKS
BISMARCK       CLOUDY    52  45  77 NE6       30.16S
DICKINSON      CLOUDY    46  43  89 CALM      30.14F
GARRISON         N/A     50  43  77 CALM      30.16S
HETTINGER ARPT LGT RAIN  44  39  82 CALM      30.17S
$$

NDZ004>008-012>016-024-026-027-054-251800-
NORTHEAST NORTH DAKOTA

CITY           SKY/WX    TMP DP  RH WIND       PRES   REMARKS
GRAND FORKS    CLOUDY    51  47  86 N12       30.13S
GRND FRKS AFB  CLOUDY    50  44  80 N13       30.14S
DEVILS LAKE    CLOUDY    48  41  76 N12       30.16S
$$

NDZ022-023-025-028>030-036>039-047>053-251800-
SOUTHEAST NORTH DAKOTA

CITY           SKY/WX    TMP DP  RH WIND       PRES   REMARKS
FARGO          CLOUDY    51  47  86 N15       30.10S
JAMESTOWN      CLOUDY    50  42  74 N12       30.13S
$$





USA.gov is the U.S. government's official web portal to all federal, state and local government web resources and services.